Content
SEND FEEDBACK

Daily
Averages
Monthly
Summary
Mexico

CANCUN, QUINTANA ROO


Home > North America > Mexico > Quintana Roo
Elevation: 30 feet     Latitude: 21 09N     Longitude: 086 49W

WEATHER
 
SELECT A DAY
Number of Records: 165,825;   Date Range: 1/1/95 - 9/29/14
 
SHARE

PRINT THIS DATA

[ ← Previous Day ]
WEATHER ALMANAC - MAY 10, 2013
[ Next Day → ]
[ °C ]   °F
Weather ElementAverageHighLow
Temperature82.6 °F86 °F (9:41 am)78.8 °F (1:44 am)
Dewpoint74.1 °F75.2 °F (6:43 am)71.6 °F (1:44 am)
Humidity75.7 %89 % (6:43 am)66 % (12:42 pm)
Barometer29.99 in30.03 in (10:41 am)29.93 in (4:41 pm)
Wind Speed13.5 mph20.7 mph (2:41 pm)
Weather ElementAverage
Visibility7 mi
Wind DirectionSE (133.9 °)

Weather ElementTotal
Precipitation---
Cooling Degree Days17.4 (Base 65)
Growing Degree Days32.4 (Base 50)
Averaged from 23 records on May 10, 2013
WEATHER CONDITIONS BREAKOUT
WIND DIRECTION BREAKOUT
WEATHER BY HOUR - MAY 10, 2013
[ °C ]   °F
Local TimeTemperatureDewpointHumidityBarometerVisibilityWind DirectionWind SpeedGust SpeedPrecipitationEventsConditions
1:44 AM78.8 °F71.6 °F78 %30.02 in7.0 miESE (120°)8.1 mphClear
2:43 AM78.8 °F71.6 °F78 %30.01 in7.0 miEast (100°)6.9 mphClear
3:46 AM78.8 °F73.4 °F83 %29.99 in7.0 miESE (120°)9.2 mphPartly Cloudy
4:45 AM78.8 °F73.4 °F83 %29.98 in7.0 miESE (120°)10.4 mphScattered Clouds
5:44 AM78.8 °F73.4 °F83 %29.98 in7.0 miSE (130°)11.5 mphScattered Clouds
6:43 AM78.8 °F75.2 °F89 %30.00 in7.0 miSE (140°)8.1 mphScattered Clouds
7:41 AM82.4 °F75.2 °F79 %30.00 in7.0 miESE (120°)10.4 mphMostly Cloudy
8:42 AM84.2 °F75.2 °F74 %30.02 in7.0 miSE (130°)15.0 mphMostly Cloudy
9:41 AM86.0 °F75.2 °F70 %30.02 in7.0 miSE (140°)6.9 mphMostly Cloudy
10:41 AM86.0 °F75.2 °F70 %30.03 in7.0 miSE (130°)16.1 mphMostly Cloudy
11:41 AM86.0 °F75.2 °F70 %30.03 in7.0 miSE (140°)16.1 mphMostly Cloudy
12:42 PM86.0 °F73.4 °F66 %30.01 in7.0 miSE (130°)18.4 mphScattered Clouds
1:42 PM86.0 °F73.4 °F66 %29.99 in7.0 miSSE (150°)15.0 mphMostly Cloudy
2:41 PM86.0 °F73.4 °F66 %29.96 in7.0 miSSE (150°)20.7 mphScattered Clouds
3:44 PM86.0 °F75.2 °F70 %29.94 in7.0 miSE (140°)20.7 mphMostly Cloudy
4:41 PM84.2 °F75.2 °F74 %29.93 in7.0 miSSE (150°)18.4 mphMostly Cloudy
5:42 PM84.2 °F75.2 °F74 %29.94 in7.0 miSE (140°)17.3 mphMostly Cloudy
6:46 PM82.4 °F73.4 °F74 %29.95 in7.0 miSE (140°)15.0 mphMostly Cloudy
7:42 PM82.4 °F73.4 °F74 %29.97 in7.0 miSE (140°)15.0 mphMostly Cloudy
8:43 PM82.4 °F75.2 °F79 %29.98 in7.0 miSE (140°)12.7 mphScattered Clouds
9:46 PM80.6 °F75.2 °F84 %29.97 in7.0 miSE (140°)15.0 mphScattered Clouds
10:41 PM80.6 °F73.4 °F79 %30.01 in7.0 miSE (140°)13.8 mphScattered Clouds
11:47 PM80.6 °F73.4 °F79 %30.02 in7.0 miSE (130°)10.4 mphScattered Clouds
Hourly data recorded from MMUN, located miles away from Cancun, Quintana Roo







STORIES FROM OUR PARTNERS